Regional Weather Roundup
Issued by NWS

Home | Current Version | Previous Version | Graphics & Text | Print | Product List | Glossary On
Versions: 1 2 3 4 5 6 7 8 9 10 11 12 13 14 15 16 17 18 19 20 21 22 23 24 25 26 27 28 29 30 31 32 33 34 35 36 37 38 39 40 41 42 43 44 45 46 47 48 49 50
065
ASUS43 KIND 252359
RWRIN

WEATHER ROUNDUP FOR INDIANA
NATIONAL WEATHER SERVICE INDIANAPOLIS IN
800 PM EDT WED MAY 25 2016

NOTE: "FAIR" INDICATES FEW OR NO CLOUDS BELOW 12,000 FEET WITH NO
SIGNIFICANT WEATHER AND/OR OBSTRUCTIONS TO VISIBILITY.

* - STATION DOES NOT REPORT WEATHER SUCH AS PRECIPITATION OR FOG.

+ - STATION NOT QUALITY CONTROLLED BY THE NATIONAL WEATHER SERVICE.
    USE DATA WITH CAUTION...ESPECIALLY DEWPOINT AND RELATIVE
    HUMIDITY OBSERVATIONS.

INZ001>003-010>013-019-020-260100-
NORTHWEST INDIANA

CITY           SKY/WX    TMP DP  RH WIND       PRES   REMARKS
GARY /AIRPORT/ PTSUNNY   73  73 100 E3        29.90F
RENSSELAER +   MOSUNNY   82  59  44 S15       29.93R

$$

LMZ046-743>745-260100-
SOUTHERN LAKE MICHIGAN

STATION/POSITION TIME  TEMP    WIND        PRES    WAVE
                       AIR SEA DIR/SP/G            HT
                 (UTC) (F)     (DEG/KT/KT) (MB)    (FT)
BURNS HARBOR     2300   75     200/ 20     1012.9R
MICHIGAN CITY    2300   84     170/  8/  9   N/A
5NW MICH CITY    2300   68 61  100/  2/  4   N/A     1

$$

INZ004-005-014>016-021>024-260100-
NORTH CENTRAL INDIANA

CITY           SKY/WX    TMP DP  RH WIND       PRES   REMARKS
ELKHART        MOSUNNY   82  64  54 S8        29.93S
GOSHEN         MOSUNNY   82  56  40 S10       29.93S
6HR MIN TEMP:  82; 6HR MAX TEMP:  86;

SOUTH BEND     MOSUNNY   81  59  47 S7        29.93R
6HR MIN TEMP:  81; 6HR MAX TEMP:  85;


$$

INZ006>009-017-018-025>027-260100-
NORTHEAST INDIANA

CITY           SKY/WX    TMP DP  RH WIND       PRES   REMARKS
FORT WAYNE     MOCLDY    81  59  47 S10       29.96S
6HR MIN TEMP:  81; 6HR MAX TEMP:  85;


$$

INZ028-029-035-036-043>045-051>053-260100-
WEST CENTRAL INDIANA

CITY           SKY/WX    TMP DP  RH WIND       PRES   REMARKS
CRAWFORDSVL +  SUNNY     76  61  61 S18       29.97R
6HR MIN TEMP:  76; 6HR MAX TEMP:  83;

GREENCASTLE +  SUNNY     73  64  73 S8        29.99S
LAFAYETTE      MOSUNNY   79  57  46 SW8G18    29.94R
6HR MIN TEMP:  79; 6HR MAX TEMP:  84;

TERRE HAUTE    CLOUDY    75  62  64 S15       29.97F
6HR MIN TEMP:  75; 6HR MAX TEMP:  84;


$$

INZ030>032-037>040-046>048-054>057-064-065-260100-
CENTRAL INDIANA

CITY           SKY/WX    TMP DP  RH WIND       PRES   REMARKS
COLUMBUS       PTCLDY    79  64  61 SW16      30.00F
INDIANAPOLIS   NOT AVBL
-EAGLE CREEK   MOSUNNY   79  63  57 SW12G17   29.98R
6HR MIN TEMP:  79; 6HR MAX TEMP:  84;

KOKOMO *+      SUNNY     81  61  50 S10       29.95R
6HR MIN TEMP:  81; 6HR MAX TEMP:  84;

SHELBYVILLE    PTCLDY    81  63  54 S17       29.99R
6HR MIN TEMP:  80; 6HR MAX TEMP:  86;


$$

INZ033-034-041-042-049-050-058-059-260100-
EAST CENTRAL INDIANA

CITY           SKY/WX    TMP DP  RH WIND       PRES   REMARKS
MUNCIE         PTCLDY    83  61  47 S10       29.97S
6HR MIN TEMP:  83; 6HR MAX TEMP:  87;


$$

INZ060-061-067>069-081>083-085>088-260100-
SOUTHWEST INDIANA

CITY           SKY/WX    TMP DP  RH WIND       PRES   REMARKS
EVANSVILLE     CLOUDY    72  64  76 S9        30.02R
6HR MIN TEMP:  69; 6HR MAX TEMP:  73; 6HR PCP:  0.07;

HUNTINGBURG *+ MOSUNNY   72  63  73 S7        30.03R
6HR MIN TEMP:  72; 6HR MAX TEMP:  79;


$$

INZ062-063-066-070>080-084-089>092-260100-
SOUTH CENTRAL AND SOUTHEAST INDIANA

CITY           SKY/WX    TMP DP  RH WIND       PRES   REMARKS
BLOOMINGTON    CLOUDY    76  61  59 S9        30.01S
6HR MIN TEMP:  76; 6HR MAX TEMP:  84;

MADISON *+     MOCLDY    73  64  73 S8        30.07R
SEYMOUR +      CLOUDY    77  63  61 S13       30.01S

$$





USA.gov is the U.S. government's official web portal to all federal, state and local government web resources and services.